Regional Weather Roundup
Issued by NWS Sioux Falls, SD

Home | Current Version | Previous Version | Text Only | Print | Product List | Glossary On
Versions: 1 2 3 4 5 6 7 8 9 10 11 12 13 14 15 16 17 18 19 20 21 22 23 24 25 26 27 28 29 30 31 32 33 34 35 36 37 38 39 40 41 42 43 44 45 46 47 48 49 50
000
ASUS43 KFSD 060810
RWRFSD

WEATHER ROUNDUP FOR SE SOUTH DAKOTA/SW MINNESOTA/NW IOWA
NATIONAL WEATHER SERVICE SIOUX FALLS SD
300 AM CDT WED MAY 06 2015

NOTE: "FAIR" INDICATES FEW OR NO CLOUDS BELOW 12,000 FEET WITH NO
SIGNIFICANT WEATHER AND OR OBSTRUCTIONS TO VISIBILITY.


SDZ038>040-050-052>070-060900-
SOUTHEAST SOUTH DAKOTA

CITY           SKY/WX    TMP DP  RH WIND       PRES   REMARKS
BROOKINGS      CLOUDY    57  57 100 SE15      29.95F
CHAMBERLAIN    CLOUDY    59  57  92 SE10      29.84F
HURON          MOCLDY    61  58  90 SE10      29.88F FOG
MADISON        CLOUDY    59  59 100 SE16      29.94F
MITCHELL       LGT RAIN  63  60  90 SE14      29.88F
SIOUX FALLS    CLOUDY    62  59  90 SE12      29.93F
WINNER         CLOUDY    60  54  80 SE15      29.81F
YANKTON        CLOUDY    64  57  77 SE8       29.88F
$$

MNZ071-072-080-081-089-090-097-098-060900-
SOUTHWEST MINNESOTA

CITY           SKY/WX    TMP DP  RH WIND       PRES   REMARKS
FAIRMONT       CLOUDY    55  52  88 SE16      30.02F VSB 1
JACKSON        FOG       57  55  94 SE14      30.02F VSB 1/4
LUVERNE        CLOUDY    61  59  94 SE14      29.97F FOG
MARSHALL       CLOUDY    57  52  82 SE14      29.99F
MONTEVIDEO     CLOUDY    55  55 100 S14       30.01F FOG
REDWOOD FALLS  CLOUDY    56  54  93 SE12      30.02F FOG
TRACY          CLOUDY    57  56  97 SE13      30.00F FOG
WORTHINGTON    CLOUDY    57  55  94 SE15      29.99F VSB 3/4
$$

IAZ001>003-012>014-020>022-031-032-NEZ013-014-SDZ071-060900-
NORTHWEST IOWA

CITY           SKY/WX    TMP DP  RH WIND       PRES   REMARKS
CHEROKEE       CLOUDY    63  63  99 SE12      29.96F FOG
DENISON        CLOUDY    64  63  94 S13       29.95F
ESTHERVILLE    FOG       57  57 100 SE14      30.02F VSB 1/4
LE MARS        LGT RAIN  64  61  88 SE12      29.95F
ORANGE CITY    CLOUDY    61  59  94 SE7       29.96F FOG
SHELDON        CLOUDY    63  63 100 SE15      29.96F FOG
SIOUX CITY     CLOUDY    66  57  72 SE13      29.93F
SPENCER        CLOUDY    62  32  32 SE15      29.99F FOG
STORM LAKE     CLOUDY    63  63 100 SE14      29.99F FOG
$$

ABBREVIATIONS USED IN REMARKS
   TC - TEMPERATURE IN CELSIUS
  WCI - WIND CHILL INDEX
   HX - HEAT INDEX
  VSB - VISIBILITY



USA.gov is the U.S. government's official web portal to all federal, state and local government web resources and services.